Skip Page Navigation
NASA JPL Caltech
NASA Logo - Jet Propulsion Laboratory + View the NASA Portal
+ Center for Near-Earth Object Studies
JPL Home Earth Solar System Stars & Galaxies Technology
JPL Solar System Dynamics
BODIES ORBITS EPHEMERIDES TOOLS PHYSICAL DATA DISCOVERY FAQ SITE MAP
IMPORTANT: The SSD Announcement email list is now available. Major changes are coming in the near future, including possible hostname and/or URL changes. To be notified of such changes, subscribe to this email list.

Please visit this page for more details.


JPL Small-Body Database Browser
Search: [ help ]  
185158 (2006 SC206)
Classification: Main-belt Asteroid          SPK-ID: 2185158
Ephemeris | Orbit Diagram | Orbital Elements | Mission Design | Physical Parameters | Discovery Circumstances | Close-Approach Data ]

[ show orbit diagram ]
Orbital Elements at Epoch 2459000.5 (2020-May-31.0) TDB
Reference: JPL 10 (heliocentric ecliptic J2000)
 Element Value Uncertainty (1-sigma)   Units 
e .129459705102191 7.5427e-08  
a 3.00522911145798 3.9579e-08 au
q 2.61617303692411 2.1053e-07 au
i 5.156610666615609 9.7781e-06 deg
node 5.36503886266996 7.1156e-05 deg
peri 102.1537921321582 8.3797e-05 deg
M 150.9026012990066 4.4307e-05 deg
tp 2458202.856127705363
(2018-Mar-25.35612771)
0.00022749 TDB
period 1902.894923972126
5.21
3.7592e-05
1.029e-07
d
yr
n .1891854329237116 3.7374e-09 deg/d
Q 3.394285185991849 4.4703e-08 au
  Orbit Determination Parameters
   # obs. used (total)      229  
   data-arc span      9547 days (26.14 yr)  
   first obs. used      1993-03-21  
   last obs. used      2019-05-11  
   planetary ephem.      DE431  
   SB-pert. ephem.      SB431-N16  
   condition code      0  
   norm. resid. RMS      .64478  
   source      ORB  
   producer      Otto Matic  
   solution date      2019-May-30 07:52:33  

Additional Information
 Earth MOID = 1.63902 au 
 Jupiter MOID = 1.73897 au 
 T_jup = 3.232 
[ show covariance matrix ]

Ephemeris | Orbit Diagram | Orbital Elements | Mission Design | Physical Parameters | Discovery Circumstances | Close-Approach Data ]

Physical Parameter Table
Parameter Symbol Value Units Sigma Reference Notes
absolute magnitude H 15.9   n/a MPO390952  

185158 (2006 SC206)          Discovered 2006-Sep-25 by Spacewatch at Kitt Peak
Reference: 20080420/Numbers.arcLast Updated: 2008-04-23

[ show close-approach data ]
Alternate Designations
 2006 SC206 = 1993 FC74 
Ephemeris | Orbit Diagram | Orbital Elements | Mission Design | Physical Parameters | Discovery Circumstances | Close-Approach Data ]
ABOUT SSD CREDITS/AWARDS PRIVACY/COPYRIGHT GLOSSARY LINKS
FirstGov 2020-Feb-25 23:25 UT
(server date/time)  
NASA Home Page
Site Manager:   Ryan S. Park
Webmaster  Alan B. Chamberlin